Location: Follega
(52.8850°N, 5.7362°E)
Time: 23:44:25
(UTC+00:00)

Cosmos 2297 Rocket - Pass Details

Date: 08 October 2020
Orbit: 838 x 845 km, 71.0° (Epoch: 22 October)

Event Time Altitude Azimuth Distance (km) Brightness Sun altitude
Rises 17:32:51 0° 312° (NW) 3,414 6.1 -6.3°
Reaches altitude 10° 17:36:58 10° 341° (NNW) 2,479 4.9 -6.9°
Maximum altitude 17:39:23 13° 6° (N) 2,293 4.4 -7.2°
Drops below altitude 10° 17:41:48 10° 32° (NNE) 2,479 4.3 -7.6°
Enters shadow 17:44:43 - 54° (NE) 3,086 4.6 -8.0°
